Japanese version Home page |
Updated on August 15, 2020 |
|
Orbital ElementsEpoch 2018 Feb. 11.0 TT = JDT 2458160.5 T 2018 Feb. 10.76021 TT MPCW q 1.3591126 (2000.0) P Q n 0.17336462 Peri. 66.40051 -0.88412965 -0.43495746 a 3.1853884 Node 87.44220 +0.34163698 -0.85096619 e 0.5733291 Incl. 9.83642 +0.31874588 -0.29439523 P 5.69 From 388 observations 2011 Nov. 24-2018 June 2, mean residual 0".4.
|
Finding Charts
|
Magnitudes Graphm1 = 17.0 + 5 log d + 10.0 log r
|
The orbital elements are published on M.P.E.C. 2018-S50.
|